Stations météo

réclame
Mon MeteoGroup
F3, Pays-Bas (6239): Température de l'air & dewpoint: 08.10.2019 20:00:00 - 14.10.2019 20:00:00 (CEST)F3, Pays-Bas (6239): Vitesse du vent & gusts: 08.10.2019 20:00:00 - 14.10.2019 20:00:00 (CEST)F3, Pays-Bas (6239): Direction du vent: 08.10.2019 20:00:00 - 14.10.2019 20:00:00 (CEST)F3, Pays-Bas (6239): reduced air pressure: 08.10.2019 20:00:00 - 14.10.2019 20:00:00 (CEST)F3, Pays-Bas (6239): visibility: 08.10.2019 20:00:00 - 14.10.2019 20:00:00 (CEST)
Date & Time tt [°C] td [°C] ff [km/h] ff [knt] fx [km/h] fx [knt] dd ppp [hPa] vv [km]
14.10.2019 20:00:00 13,3 9,0 44 24 43 23 ESE 1009,3 10
14.10.2019 19:00:00 14,0 9,7 29 16 32 18 ESE 1009,0 10
14.10.2019 18:00:00 13,7 10,5 26 14 25 14 ESE 1009,8 10
14.10.2019 17:00:00 13,8 10,7 18 10 36 19 - 1010,4 10
14.10.2019 16:00:00 13,9 9,5 9 5 14 8 S 1011,5 10
14.10.2019 15:00:00 13,9 9,6 13 7 14 8 S 1011,5 10
14.10.2019 14:00:00 13,7 9,7 15 8 18 10 SSW 1012,2 10
14.10.2019 13:00:00 13,6 9,8 16 9 18 10 SSW 1012,4 10
14.10.2019 12:00:00 13,6 9,2 13 7 14 8 SW 1012,3 10
14.10.2019 11:00:00 13,5 8,8 15 8 22 12 SW 1012,2 10
14.10.2019 10:00:00 13,5 9,3 18 10 29 16 SW 1012,6 10
14.10.2019 09:00:00 12,9 9,8 5 3 14 8 SSW 1011,7 10
14.10.2019 08:00:00 12,4 10,8 11 6 29 16 WSW 1010,4 10
14.10.2019 07:00:00 13,0 10,0 16 9 22 12 W 1009,9 10
14.10.2019 06:00:00 13,1 9,2 26 14 25 14 W 1009,1 10
14.10.2019 05:00:00 13,0 9,1 29 16 29 16 W 1008,3 10
14.10.2019 04:00:00 13,0 9,0 31 17 36 19 W 1007,9 10
14.10.2019 03:00:00 12,9 9,3 34 18 43 23 WNW 1006,7 10
14.10.2019 02:00:00 13,0 9,5 48 26 58 31 WNW 1005,2 10
14.10.2019 01:00:00 13,2 11,2 65 35 76 41 W 1003,3 10
14.10.2019 00:00:00 13,7 10,9 83 45 86 47 WSW 1000,9 10
13.10.2019 23:00:00 - 10,9 80 43 90 49 WSW 999,3 10
13.10.2019 22:00:00 -88,9 -88,9 85 46 94 51 WSW 998,7 10
13.10.2019 21:00:00 -83,8 -64,7 81 44 90 49 SW 998,1 10
13.10.2019 20:00:00 - 6,2 72 39 76 41 SW 997,0 10
13.10.2019 19:00:00 13,2 13,2 68 37 68 37 SSW 996,9 10
13.10.2019 18:00:00 - 14,9 55 30 58 31 S 997,7 8
13.10.2019 17:00:00 - 14,9 52 28 50 27 S 999,1 5
13.10.2019 16:00:00 - 14,4 48 26 50 27 SSE 999,8 3,0
13.10.2019 15:00:00 14,2 13,4 52 28 50 27 SE 1001,1 5
13.10.2019 14:00:00 13,2 12,0 44 24 47 25 ESE 1002,3 10
13.10.2019 13:00:00 13,1 10,4 37 20 40 21 ESE 1004,1 10
13.10.2019 12:00:00 12,8 10,4 35 19 32 18 ESE 1005,1 10
13.10.2019 11:00:00 12,9 10,4 21 11 32 18 SE 1006,6 10
13.10.2019 10:00:00 12,5 9,8 28 15 29 16 SSE 1006,7 10
13.10.2019 09:00:00 - 10,8 26 14 25 14 S 1006,8 10
13.10.2019 08:00:00 - 11,1 28 15 29 16 S 1006,7 10
13.10.2019 07:00:00 - 9,6 16 9 18 10 SSW 1007,0 10
13.10.2019 06:00:00 - 9,7 16 9 18 10 SW 1007,1 10
13.10.2019 05:00:00 - 10,1 18 10 18 10 SSW 1007,1 10
13.10.2019 04:00:00 - 9,7 16 9 18 10 SW 1007,3 10
13.10.2019 03:00:00 - 9,0 18 10 22 12 WSW 1007,6 10
13.10.2019 02:00:00 - 9,4 22 12 22 12 WSW 1007,9 10
13.10.2019 01:00:00 - 8,5 22 12 25 14 WSW 1007,8 10
13.10.2019 00:00:00 - 8,8 26 14 25 14 WSW 1007,9 10
12.10.2019 23:00:00 - 8,5 28 15 32 18 WSW 1007,8 10
12.10.2019 22:00:00 - 8,6 31 17 32 18 WSW 1007,4 10
12.10.2019 21:00:00 - 8,3 34 18 36 19 WSW 1007,0 10
12.10.2019 20:00:00 - 8,1 34 18 32 18 WSW 1006,8 10
12.10.2019 19:00:00 - 8,3 31 17 36 19 W 1006,6 10
12.10.2019 18:00:00 - 8,0 39 21 40 21 WSW 1006,3 10
12.10.2019 17:00:00 - 7,7 39 21 40 21 W 1006,0 10
12.10.2019 16:00:00 - 8,1 44 24 47 25 W 1005,9 10
12.10.2019 15:00:00 - 7,8 46 25 50 27 W 1005,5 10
12.10.2019 14:00:00 - 9,1 50 27 50 27 W 1005,1 10
12.10.2019 13:00:00 - 8,2 50 27 50 27 W 1004,6 10
12.10.2019 12:00:00 - 8,2 50 27 50 27 W 1003,8 10
12.10.2019 11:00:00 - 9,0 54 29 50 27 WSW 1003,1 10
12.10.2019 10:00:00 - 8,6 55 30 54 29 W 1002,3 10
12.10.2019 09:00:00 - 8,9 55 30 58 31 W 1001,5 10
12.10.2019 08:00:00 - 8,6 59 32 58 31 WSW 1000,9 10
12.10.2019 07:00:00 - 8,9 57 31 58 31 WSW 1000,4 10
12.10.2019 06:00:00 - 8,9 57 31 58 31 W 1000,0 10
12.10.2019 05:00:00 - 8,4 59 32 58 31 WSW 1000,4 10
12.10.2019 04:00:00 - 9,1 59 32 58 31 WSW 1000,1 10
12.10.2019 03:00:00 - 9,3 54 29 58 31 W 1000,2 10
12.10.2019 02:00:00 - 8,8 54 29 58 31 W 1000,0 10
12.10.2019 01:00:00 - 9,3 55 30 58 31 W 999,7 10
12.10.2019 00:00:00 - 9,3 52 28 54 29 W 999,1 10
11.10.2019 23:00:00 - 9,4 52 28 50 27 W 998,9 10
11.10.2019 22:00:00 - 10,3 52 28 50 27 W 998,4 10
11.10.2019 21:00:00 - 11,2 46 25 50 27 W 998,0 10
11.10.2019 20:00:00 - 12,1 44 24 43 23 WSW 997,7 10
11.10.2019 19:00:00 - 12,1 44 24 50 27 WSW 997,5 10
11.10.2019 18:00:00 - 12,3 76 41 76 41 WSW 997,0 10
11.10.2019 17:00:00 -47,9 -23,5 74 40 76 41 SW 996,6 10
11.10.2019 16:00:00 7,5 7,5 70 38 68 37 WSW 997,6 10
11.10.2019 15:00:00 15,2 13,1 61 33 65 35 SW 998,0 10
11.10.2019 14:00:00 15,2 13,4 55 30 58 31 WSW 998,8 10
11.10.2019 13:00:00 15,0 12,9 59 32 65 35 WSW 999,3 10
11.10.2019 12:00:00 15,2 12,5 70 38 72 39 WSW 999,7 10
11.10.2019 11:00:00 15,4 13,0 61 33 68 37 WSW 1000,2 10
11.10.2019 10:00:00 15,6 13,0 68 37 65 35 WSW 1000,3 10
11.10.2019 09:00:00 15,6 12,5 54 29 68 37 WSW 1000,1 19
11.10.2019 08:00:00 15,5 12,6 63 34 65 35 WSW 1000,5 10
11.10.2019 07:00:00 15,3 12,2 61 33 65 35 WSW 1000,6 10
11.10.2019 06:00:00 15,1 12,3 65 35 65 35 WSW 1000,7 10
11.10.2019 05:00:00 14,2 12,3 50 27 61 33 WSW 1000,7 10
11.10.2019 04:00:00 14,7 11,7 81 44 90 49 SW 999,8 7
11.10.2019 03:00:00 14,4 13,0 65 35 76 41 SW 1000,7 10
11.10.2019 02:00:00 15,3 11,9 76 41 76 41 WSW 1001,1 10
11.10.2019 01:00:00 15,3 11,8 65 35 68 37 WSW 1001,9 10
11.10.2019 00:00:00 15,1 11,5 68 37 72 39 SW 1002,4 10
10.10.2019 23:00:00 13,9 12,1 65 35 68 37 SW 1003,2 10
10.10.2019 22:00:00 13,8 10,1 54 29 54 29 SW 1004,4 10
10.10.2019 21:00:00 14,2 9,2 55 30 58 31 WSW 1005,0 10
10.10.2019 20:00:00 14,1 8,8 55 30 58 31 WSW 1005,4 10
10.10.2019 19:00:00 13,9 8,9 57 31 58 31 W 1005,3 10
10.10.2019 18:00:00 13,6 8,3 55 30 58 31 W 1005,0 10
10.10.2019 17:00:00 13,6 9,6 54 29 58 31 W 1004,9 10
10.10.2019 16:00:00 13,4 9,2 61 33 58 31 W 1004,6 10
10.10.2019 15:00:00 13,3 9,0 59 32 58 31 WSW 1004,0 10
10.10.2019 14:00:00 13,0 9,4 57 31 58 31 W 1003,7 10
10.10.2019 13:00:00 13,1 9,0 61 33 61 33 W 1003,1 10
10.10.2019 12:00:00 13,0 8,1 59 32 58 31 W 1002,5 10
10.10.2019 11:00:00 13,1 7,8 57 31 54 29 W 1001,9 10
10.10.2019 10:00:00 13,1 7,8 52 28 54 29 W 1001,4 10
10.10.2019 09:00:00 13,2 8,4 55 30 54 29 W 1000,7 10
10.10.2019 08:00:00 13,2 8,3 48 26 50 27 W 1000,2 10
10.10.2019 07:00:00 13,2 7,7 54 29 50 27 W 999,8 10
10.10.2019 06:00:00 13,3 8,2 50 27 50 27 W 999,8 10
10.10.2019 05:00:00 13,3 8,4 54 29 54 29 W 999,3 10
10.10.2019 04:00:00 13,2 6,9 50 27 50 27 W 999,3 10
10.10.2019 03:00:00 13,1 7,5 46 25 47 25 W 999,3 10
10.10.2019 02:00:00 13,2 7,1 50 27 50 27 W 999,0 10
10.10.2019 01:00:00 13,3 7,8 48 26 47 25 W 998,6 10
10.10.2019 00:00:00 13,4 7,8 46 25 43 23 W 998,7 10
09.10.2019 23:00:00 13,1 7,3 44 24 43 23 W 998,5 10
09.10.2019 22:00:00 13,1 7,7 42 23 43 23 W 998,6 10
09.10.2019 21:00:00 12,6 7,8 34 18 43 23 W 998,6 10
09.10.2019 20:00:00 13,3 7,4 41 22 43 23 W 998,5 10
09.10.2019 19:00:00 13,3 7,6 42 23 43 23 W 998,4 10
09.10.2019 18:00:00 13,3 8,5 42 23 47 25 W 998,2 10
09.10.2019 17:00:00 13,4 8,0 44 24 47 25 WSW 998,1 10
09.10.2019 16:00:00 13,3 8,4 36 19 58 31 W 998,0 26
09.10.2019 15:00:00 13,4 8,5 48 26 47 25 WSW 998,0 10
09.10.2019 14:00:00 13,3 8,7 42 23 54 29 WSW 997,9 10
09.10.2019 13:00:00 13,3 9,2 44 24 47 25 WSW 998,0 10
09.10.2019 12:00:00 12,9 8,7 39 21 54 29 WSW 998,2 2,2
09.10.2019 11:00:00 13,5 9,1 46 25 43 23 WSW 998,3 10
09.10.2019 10:00:00 13,4 9,1 48 26 50 27 WSW 998,4 10
09.10.2019 09:00:00 13,5 9,6 50 27 54 29 WSW 998,4 10
09.10.2019 08:00:00 13,3 9,4 43 23 61 33 W 998,2 14
09.10.2019 07:00:00 13,6 9,0 54 29 54 29 WSW 998,4 10
09.10.2019 06:00:00 13,8 8,5 54 29 58 31 W 998,3 10
09.10.2019 05:00:00 13,7 8,1 57 31 58 31 W 998,1 10
09.10.2019 04:00:00 13,7 8,7 57 31 58 31 W 998,0 10
09.10.2019 03:00:00 14,2 8,0 54 29 58 31 WSW 997,9 10
09.10.2019 02:00:00 14,4 7,8 55 30 58 31 W 998,3 10
09.10.2019 01:00:00 14,5 7,8 54 29 58 31 W 998,3 10
09.10.2019 00:00:00 14,7 7,6 54 29 58 31 W 998,1 10
08.10.2019 23:00:00 14,7 8,3 50 27 50 27 W 997,5 10
08.10.2019 22:00:00 14,6 8,6 48 26 50 27 W 997,4 10
08.10.2019 21:00:00 14,4 10,0 48 26 58 31 WSW 997,4 10
08.10.2019 20:00:00 13,6 8,7 57 31 65 35 WSW 997,6 10

tt = Température de l'air
td = dewpoint
ff = Vitesse du vent
fx = gusts
dd = Direction du vent
ppp = reduced air pressure
vv = visibility

stations d'obs. à proximité